SL-14 DEB, 45286

Orbit data source: Space-Track

SL-14 DEB, 45286 is space debris in LEO originally from a launch on Thu, 15 Aug 1991 UTC launched from the Plesetsk Missile And Space Complex (PKMTR). Debris objects in space refer to the collection of defunct objects orbiting the Earth. Examples of debris include non-operational satellites, rocket bodies, and fragments generated from explosions, collisions, or faulty payload assembly.

Loading next visibility...
Identifier
45286, 1991-056Y
Orbit
LEO
Country
Flag of CISCIS
Related business
Manufacturer
Unknown
Mission
Spacecraft
Bus & Motor
Unknown
Mass
Unknown
Launch date (UTC)
1991-08-15 (35 years ago)
Launch vehicle
Unknown
Launch site
Plesetsk Missile And Space Complex (PKMTR)
Object type
Payload
Rocket body
Debris
Shape & HBR
Unknown shape, 0.1 m
Radar Cross Section
Medium (>0.1 m² and <1 m²)

Expand to show TLE details & history
Last TLE update: 2 days ago

TLE from 2 days ago
0 SL-14 DEB
1 45286U 91056Y   26171.41853676  .00000406  00000-0  10410-2 0  9991
2 45286  82.6279 158.7110 0023734 159.4086 200.7998 13.15695505304211
Epoch: 2026-06-20T10:02Z
TLE epoch observation values (Epoch: 2026-06-20T10:02:41.576Z)
Latitude
0.00002°
Longitude
99.40433°
Altitude
1,220.839 km
Speed
7.236 km/s
True Right ascension
10h 34m 50s
True Declination
0° 00' 00"
Sunlit
Object was in daylight at epoch
Visualization orbit readout
Latitude
Unknown
Longitude
Unknown
Altitude
Unknown
Speed
Unknown
Apparent Right ascension
Unknown
Apparent Declination
Unknown
Sunlit
N/A
Visualization observer readout
Local Sidereal Time
21:35:01
Azimuth
Unknown
Elevation
Unknown
Doppler factor
Unknown
Orbital elements
Apogee altitude
1,216.432 km
Perigee altitude
1,180.468 km
Semi-major axis
7,576.587 km
Eccentricity
0.00237
Inclination
82.6279°
RAAN
158.711°
Arg. of periapsis
159.4086°
True anomaly
200.70349°
Mean anomaly
200.7998°
Eccentric anomaly
200.75162°
Mean motion
3.29104 °/min
Orbital period
109.39 mins
BSTAR
0.001041
Loading maneuver chart data...
Computing Atmospheric mass density...
Loading historical data...
Loading historical data...
Loading historical data...
Loading historical data...
Loading historical data...
Loading historical data...
Loading historical data...

Documentation

Showing up to 5 results
|